| time (UTC) | temp C | wind direction | speed KPH | gust KPH | rain 1hr cm | rain 24hr cm | rain mn cm | humidity % | barometer mb |
| 20260507032706 | 17 | 53 | 6.4 | 9.7 | 0.00 | 0.00 | 0.00 | 16 | 1016.1 |
| 20260507031723 | 19 | 16 | 3.2 | 4.8 | 0.00 | 0.00 | 0.00 | 14 | 1015.9 |
| 20260507025718 | 20 | 27 | 6.4 | 12.9 | 0.00 | 0.00 | 0.00 | 12 | 1015.6 |
| 20260507024711 | 20 | 28 | 6.4 | 9.7 | 0.00 | 0.00 | 0.00 | 12 | 1015.4 |
| 20260507023712 | 20 | 30 | 6.4 | 14.5 | 0.00 | 0.00 | 0.00 | 12 | 1015.3 |
| 20260507021721 | 21 | 30 | 12.9 | 24.1 | 0.00 | 0.00 | 0.00 | 11 | 1015.0 |
| 20260507020719 | 21 | 27 | 14.5 | 24.1 | 0.00 | 0.00 | 0.00 | 11 | 1014.9 |
| 20260507013706 | 22 | 271 | 12.9 | 25.7 | 0.00 | 0.00 | 0.00 | 10 | 1014.5 |
| 20260507012721 | 22 | 252 | 16.1 | 27.4 | 0.00 | 0.00 | 0.00 | 10 | 1014.5 |
| 20260507011715 | 22 | 232 | 17.7 | 24.1 | 0.00 | 0.00 | 0.00 | 10 | 1014.4 |
| 20260507005703 | 23 | 228 | 22.5 | 29.0 | 0.00 | 0.00 | 0.00 | 10 | 1014.2 |
| 20260507004716 | 23 | 280 | 14.5 | 30.6 | 0.00 | 0.00 | 0.00 | 11 | 1014.1 |
| 20260507003705 | 23 | 241 | 20.9 | 33.8 | 0.00 | 0.00 | 0.00 | 10 | 1014.0 |
| 20260507002720 | 23 | 237 | 17.7 | 29.0 | 0.00 | 0.00 | 0.00 | 11 | 1013.9 |
| 20260507000704 | 23 | 209 | 20.9 | 29.0 | 0.00 | 0.00 | 0.00 | 11 | 1013.9 |
| 20260506235719 | 23 | 232 | 19.3 | 35.4 | 0.00 | 0.00 | 0.00 | 10 | 1013.8 |
| 20260506234708 | 23 | 254 | 12.9 | 32.2 | 0.00 | 0.00 | 0.00 | 10 | 1013.7 |
| 20260506233705 | 24 | 198 | 19.3 | 32.2 | 0.00 | 0.00 | 0.00 | 10 | 1013.7 |
| 20260506232704 | 24 | 273 | 16.1 | 27.4 | 0.00 | 0.00 | 0.00 | 11 | 1013.7 |
| 20260506231700 | 23 | 259 | 20.9 | 35.4 | 0.00 | 0.00 | 0.00 | 10 | 1013.8 |
| 20260506230713 | 23 | 241 | 19.3 | 38.6 | 0.00 | 0.00 | 0.00 | 10 | 1013.9 |
| 20260506222658 | 23 | 254 | 20.9 | 32.2 | 0.00 | 0.00 | 0.00 | 12 | 1013.9 |
| 20260506221712 | 24 | 242 | 16.1 | 33.8 | 0.00 | 0.00 | 0.00 | 12 | 1013.8 |
| 20260506220707 | 24 | 251 | 16.1 | 30.6 | 0.00 | 0.00 | 0.00 | 13 | 1013.9 |
| 20260506215659 | 23 | 221 | 20.9 | 27.4 | 0.00 | 0.00 | 0.00 | 13 | 1014.0 |
| 20260506214708 | 23 | 248 | 14.5 | 30.6 | 0.00 | 0.00 | 0.00 | 13 | 1014.1 |
| 20260506213708 | 23 | 244 | 16.1 | 27.4 | 0.00 | 0.00 | 0.00 | 14 | 1014.1 |
| 20260506211713 | 23 | 174 | 8.0 | 25.7 | 0.00 | 0.00 | 0.00 | 16 | 1014.2 |
| 20260506205658 | 23 | 253 | 17.7 | 32.2 | 0.00 | 0.00 | 0.00 | 17 | 1014.5 |
| 20260506201704 | 22 | 274 | 8.0 | 27.4 | 0.00 | 0.00 | 0.00 | 18 | 1014.7 |
| 20260506195712 | 22 | 237 | 11.3 | 25.7 | 0.00 | 0.00 | 0.00 | 19 | 1015.0 |
| 20260506194709 | 22 | 262 | 16.1 | 22.5 | 0.00 | 0.00 | 0.00 | 19 | 1015.2 |
| 20260506193703 | 22 | 220 | 16.1 | 29.0 | 0.00 | 0.00 | 0.00 | 20 | 1015.3 |
| 20260506190704 | 21 | 285 | 19.3 | 25.7 | 0.00 | 0.00 | 0.00 | 21 | 1015.7 |
| 20260506185657 | 21 | 205 | 14.5 | 27.4 | 0.00 | 0.00 | 0.00 | 24 | 1015.7 |
| 20260506184706 | 21 | 255 | 17.7 | 25.7 | 0.00 | 0.00 | 0.00 | 22 | 1015.9 |
| 20260506183658 | 20 | 132 | 17.7 | 27.4 | 0.00 | 0.00 | 0.00 | 25 | 1016.0 |
| 20260506181710 | 20 | 251 | 4.8 | 29.0 | 0.00 | 0.00 | 0.00 | 25 | 1016.2 |
| 20260506180708 | 20 | 201 | 4.8 | 20.9 | 0.00 | 0.00 | 0.00 | 25 | 1016.4 |
| 20260506175706 | 20 | 210 | 11.3 | 29.0 | 0.00 | 0.00 | 0.00 | 24 | 1016.5 |
| 20260506174658 | 20 | 204 | 16.1 | 29.0 | 0.00 | 0.00 | 0.00 | 24 | 1016.4 |
| 20260506173703 | 20 | 187 | 14.5 | 24.1 | 0.00 | 0.00 | 0.00 | 25 | 1016.5 |
| 20260506171657 | 19 | 161 | 14.5 | 24.1 | 0.00 | 0.00 | 0.00 | 26 | 1016.5 |
| 20260506170706 | 19 | 211 | 12.9 | 25.7 | 0.00 | 0.00 | 0.00 | 27 | 1016.5 |
| 20260506165702 | 19 | 239 | 12.9 | 25.7 | 0.00 | 0.00 | 0.00 | 27 | 1016.7 |
| 20260506164709 | 18 | 234 | 14.5 | 27.4 | 0.00 | 0.00 | 0.00 | 28 | 1016.5 |
| 20260506163706 | 18 | 229 | 20.9 | 25.7 | 0.00 | 0.00 | 0.00 | 29 | 1016.6 |
| 20260506162658 | 18 | 265 | 6.4 | 22.5 | 0.00 | 0.00 | 0.00 | 28 | 1016.6 |
| 20260506161653 | 18 | 248 | 11.3 | 27.4 | 0.00 | 0.00 | 0.00 | 29 | 1016.5 |
| 20260506160710 | 18 | 253 | 16.1 | 22.5 | 0.00 | 0.00 | 0.00 | 31 | 1016.5 |
| 20260506154658 | 17 | 227 | 6.4 | 17.7 | 0.00 | 0.00 | 0.00 | 34 | 1016.4 |
| 20260506153652 | 17 | 236 | 12.9 | 19.3 | 0.00 | 0.00 | 0.00 | 34 | 1016.5 |
| 20260506152701 | 17 | 227 | 9.7 | 19.3 | 0.00 | 0.00 | 0.00 | 34 | 1016.5 |
| 20260506151650 | 17 | 237 | 9.7 | 20.9 | 0.00 | 0.00 | 0.00 | 35 | 1016.4 |
| 20260506150704 | 17 | 261 | 9.7 | 16.1 | 0.00 | 0.00 | 0.00 | 35 | 1016.4 |
| 20260506145659 | 16 | 300 | 6.4 | 16.1 | 0.00 | 0.00 | 0.00 | 35 | 1016.4 |
| 20260506144658 | 16 | 282 | 8.0 | 17.7 | 0.00 | 0.00 | 0.00 | 35 | 1016.4 |
| 20260506143654 | 16 | 240 | 3.2 | 14.5 | 0.00 | 0.00 | 0.00 | 36 | 1016.4 |
| 20260506141657 | 16 | 234 | 3.2 | 8.0 | 0.00 | 0.00 | 0.00 | 37 | 1016.4 |
| 20260506140655 | 16 | 275 | 3.2 | 9.7 | 0.00 | 0.00 | 0.00 | 37 | 1016.2 |
| 20260506135651 | 16 | 269 | 3.2 | 4.8 | 0.00 | 0.00 | 0.00 | 40 | 1016.1 |
| 20260506134656 | 15 | 145 | 0.0 | 1.6 | 0.00 | 0.00 | 0.00 | 43 | 1016.1 |
| 20260506133650 | 15 | 101 | 1.6 | 3.2 | 0.00 | 0.00 | 0.00 | 46 | 1016.0 |
| 20260506132658 | 13 | 108 | 0.0 | 1.6 | 0.00 | 0.00 | 0.00 | 50 | 1016.0 |
| 20260506131652 | 12 | 109 | 0.0 | 1.6 | 0.00 | 0.00 | 0.00 | 52 | 1015.8 |
| 20260506130652 | 11 | 109 | 0.0 | 1.6 | 0.00 | 0.00 | 0.00 | 53 | 1015.8 |
| 20260506125649 | 11 | 113 | 0.0 | 3.2 | 0.00 | 0.00 | 0.00 | 53 | 1015.6 |
| 20260506124703 | 11 | 53 | 1.6 | 4.8 | 0.00 | 0.00 | 0.00 | 54 | 1015.5 |
| 20260506123701 | 10 | 105 | 3.2 | 4.8 | 0.00 | 0.00 | 0.00 | 56 | 1015.5 |
| 20260506115659 | 10 | 101 | 0.0 | 3.2 | 0.00 | 0.00 | 0.00 | 58 | 1015.1 |
| 20260506114656 | 10 | 90 | 3.2 | 4.8 | 0.00 | 0.00 | 0.00 | 57 | 1015.0 |
| 20260506113704 | 10 | 80 | 1.6 | 4.8 | 0.00 | 0.00 | 0.00 | 57 | 1014.9 |
| 20260506112703 | 10 | 130 | 4.8 | 8.0 | 0.00 | 0.00 | 0.00 | 56 | 1014.8 |
| 20260506111700 | 10 | 13 | 0.0 | 3.2 | 0.00 | 0.00 | 0.00 | 55 | 1014.7 |
| 20260506110657 | 11 | 16 | 0.0 | 1.6 | 0.00 | 0.00 | 0.00 | 55 | 1014.7 |
| 20260506105704 | 11 | 17 | 0.0 | 0.0 | 0.00 | 0.00 | 0.00 | 54 | 1014.7 |
| 20260506104658 | 11 | 18 | 0.0 | 3.2 | 0.00 | 0.00 | 0.00 | 53 | 1014.6 |
| 20260506103657 | 11 | 18 | 0.0 | 4.8 | 0.00 | 0.00 | 0.00 | 53 | 1014.5 |
| 20260506102653 | 11 | 16 | 4.8 | 6.4 | 0.00 | 0.00 | 0.00 | 53 | 1014.3 |
| 20260506101648 | 11 | 17 | 4.8 | 6.4 | 0.00 | 0.00 | 0.00 | 54 | 1014.2 |
| 20260506095704 | 11 | 132 | 1.6 | 6.4 | 0.00 | 0.00 | 0.00 | 55 | 1014.8 |
| 20260506094655 | 11 | 148 | 1.6 | 6.4 | 0.00 | 0.00 | 0.00 | 55 | 1014.7 |
| 20260506093649 | 11 | 155 | 4.8 | 6.4 | 0.00 | 0.00 | 0.00 | 55 | 1014.6 |
| 20260506092644 | 11 | 108 | 1.6 | 4.8 | 0.00 | 0.00 | 0.00 | 53 | 1014.5 |
| 20260506091658 | 11 | 111 | 3.2 | 4.8 | 0.00 | 0.00 | 0.00 | 51 | 1014.4 |
| 20260506090654 | 12 | 153 | 1.6 | 3.2 | 0.00 | 0.00 | 0.00 | 50 | 1014.4 |
| 20260506085652 | 12 | 175 | 0.0 | 3.2 | 0.00 | 0.00 | 0.00 | 49 | 1014.4 |
| 20260506084645 | 12 | 179 | 0.0 | 6.4 | 0.00 | 0.00 | 0.00 | 48 | 1014.3 |
| 20260506083701 | 12 | 177 | 3.2 | 8.0 | 0.00 | 0.00 | 0.00 | 48 | 1014.2 |
| 20260506082651 | 12 | 173 | 3.2 | 8.0 | 0.00 | 0.00 | 0.00 | 47 | 1014.3 |
| 20260506080646 | 13 | 128 | 4.8 | 6.4 | 0.00 | 0.00 | 0.00 | 45 | 1014.3 |
| 20260506072659 | 14 | 192 | 1.6 | 4.8 | 0.00 | 0.00 | 0.00 | 39 | 1013.8 |
| 20260506071653 | 14 | 209 | 1.6 | 4.8 | 0.00 | 0.00 | 0.00 | 38 | 1013.7 |
| 20260506070657 | 15 | 196 | 3.2 | 6.4 | 0.00 | 0.00 | 0.00 | 37 | 1013.7 |
| 20260506061656 | 15 | 214 | 4.8 | 11.3 | 0.00 | 0.00 | 0.00 | 33 | 1013.3 |
| 20260506060647 | 16 | 190 | 3.2 | 8.0 | 0.00 | 0.00 | 0.00 | 33 | 1013.3 |
| 20260506050653 | 17 | 216 | 3.2 | 8.0 | 0.00 | 0.00 | 0.00 | 27 | 1012.6 |
| 20260506044643 | 18 | 223 | 8.0 | 14.5 | 0.00 | 0.00 | 0.00 | 26 | 1012.4 |
| 20260506043638 | 18 | 182 | 4.8 | 12.9 | 0.00 | 0.00 | 0.00 | 26 | 1012.4 |
| 20260506042657 | 18 | 201 | 4.8 | 11.3 | 0.00 | 0.00 | 0.00 | 26 | 1012.3 |
| 20260506041652 | 18 | 187 | 4.8 | 12.9 | 0.00 | 0.00 | 0.00 | 25 | 1012.2 |
| 20260506040647 | 18 | 210 | 8.0 | 14.5 | 0.00 | 0.00 | 0.00 | 24 | 1012.1 |
| 20260506035642 | 19 | 205 | 6.4 | 12.9 | 0.00 | 0.00 | 0.00 | 24 | 1011.9 |
| 20260506033654 | 19 | 210 | 4.8 | 11.3 | 0.00 | 0.00 | 0.00 | 25 | 1011.6 |